Weather History for Provincetown, MA

Change the Weather History Date:

Friday, March 22, 2013

  Actual Average Record
Temperature  
Mean Temperature 34 °F -  
Max Temperature 37 °F 42 °F 64 °F (2012)
Min Temperature 30 °F 31 °F 23 °F (2002)
Degree Days  
Heating Degree Days 32    
Moisture  
Dew Point 26 °F    
Average Humidity 77    
Maximum Humidity 100    
Minimum Humidity 52    
Precipitation  
Precipitation 0.00 in - - ()
Sea Level Pressure  
Sea Level Pressure 29.65 in    
Wind  
Wind Speed 14 mph (WNW)    
Max Wind Speed 23 mph    
Max Gust Speed 28 mph    
Visibility 7 miles    
Events      
Averages and records for this station are not official NWS values.
T = Trace of Precipitation, MM = Missing Value Source: NWS Daily Summary

Daily Weather History Graph

Daily Weather History Graph

Search for Another Location

Airport:

Trip Planner

Search our weather history database for the weather conditions in past years. The results will help you decide how hot, cold, wet, or windy it might be!

Date:

Astronomy

Mar. 22, 2013 Rise Set
Actual Time 6:40 AM EDT 6:55 PM EDT
Civil Twilight 6:12 AM EDT 7:23 PM EDT
Nautical Twilight 5:39 AM EDT 7:56 PM EDT
Astronomical Twilight 5:06 AM EDT 8:29 PM EDT
Moon 2:15 PM EDT (3/22) 3:43 AM EDT (3/22)
Length of Visible Light 13h 11m
Length of Day
12h 15m
Waxing Gibbous, 77% of the Moon is Illuminated
Mar 22
Waxing Gibbous
Mar 27
Full
Apr 3
Last Quarter
Apr 10
New
Apr 18
First Quarter

Hourly Weather History & Observations

Time (EDT) Temp. Windchill Dew Point Humidity Pressure Visibility Wind Dir Wind Speed Gust Speed Precip Events Conditions
12:15 AM 32.0 °F 22.1 °F 30.2 °F 93% 29.59 in 1.8 mi NNW 13.8 mph - N/A   Overcast
12:35 AM 32.0 °F 22.5 °F 32.0 °F 100% 29.59 in 1.8 mi NNW 12.7 mph - N/A   Overcast
1:15 AM 32.0 °F 21.6 °F 32.0 °F 100% 29.59 in 1.2 mi NNW 15.0 mph - N/A   Overcast
1:35 AM 32.0 °F 22.1 °F 30.2 °F 93% 29.59 in 1.8 mi NW 13.8 mph 19.6 mph N/A   Overcast
1:55 AM 32.0 °F 21.6 °F 30.2 °F 93% 29.59 in 3.0 mi NW 15.0 mph 21.9 mph N/A   Overcast
2:15 AM 32.0 °F 22.1 °F 30.2 °F 93% 29.59 in 2.5 mi NW 13.8 mph 19.6 mph N/A   Overcast
2:35 AM 32.0 °F 21.2 °F 30.2 °F 93% 29.59 in 3.0 mi NW 16.1 mph 21.9 mph N/A   Overcast
2:55 AM 32.0 °F 21.6 °F 30.2 °F 93% 29.59 in 2.5 mi NW 15.0 mph 20.7 mph N/A   Overcast
3:35 AM 30.2 °F 18.1 °F 28.4 °F 93% 29.58 in 6.0 mi NW 18.4 mph 25.3 mph N/A   Overcast
3:55 AM 30.2 °F 17.8 °F 28.4 °F 93% 29.58 in 5.0 mi NW 19.6 mph 26.5 mph N/A   Overcast
4:15 AM 30.2 °F 17.8 °F 28.4 °F 93% 29.58 in 3.0 mi NW 19.6 mph 27.6 mph N/A   Overcast
4:35 AM 30.2 °F 16.8 °F 28.4 °F 93% 29.59 in 2.0 mi NW 23.0 mph 27.6 mph N/A   Overcast
4:55 AM 30.2 °F 18.1 °F 28.4 °F 93% 29.59 in 2.0 mi NW 18.4 mph 25.3 mph N/A   Overcast
5:15 AM 30.2 °F 18.9 °F 26.6 °F 86% 29.60 in 2.5 mi NNW 16.1 mph - N/A   Overcast
5:55 AM 30.2 °F 20.2 °F 26.6 °F 86% 29.60 in 4.0 mi NNW 12.7 mph 19.6 mph N/A   Overcast
6:15 AM 30.2 °F 18.9 °F 28.4 °F 93% 29.61 in 4.0 mi NNW 16.1 mph - N/A   Overcast
6:35 AM 30.2 °F 18.9 °F 28.4 °F 93% 29.61 in 4.0 mi NW 16.1 mph 20.7 mph N/A   Overcast
6:55 AM 30.2 °F 19.3 °F 28.4 °F 93% 29.61 in 4.0 mi NNW 15.0 mph 19.6 mph N/A   Overcast
7:15 AM 30.2 °F 19.8 °F 28.4 °F 93% 29.62 in 4.0 mi NNW 13.8 mph - N/A   Overcast
7:55 AM 30.2 °F 18.9 °F 28.4 °F 93% 29.63 in 1.8 mi NW 16.1 mph 19.6 mph N/A   Overcast
8:15 AM 30.2 °F 18.1 °F 28.4 °F 93% 29.64 in 2.0 mi NW 18.4 mph 23.0 mph N/A   Overcast
8:55 AM 30.2 °F 18.1 °F 28.4 °F 93% 29.64 in 4.0 mi NNW 18.4 mph - N/A   Overcast
9:15 AM 30.2 °F 18.5 °F 28.4 °F 93% 29.65 in 2.5 mi NW 17.3 mph 23.0 mph N/A   Overcast
9:35 AM 30.2 °F 18.1 °F 28.4 °F 93% 29.65 in 2.0 mi NNW 18.4 mph 24.2 mph N/A   Overcast
9:55 AM 32.0 °F 20.8 °F 28.4 °F 87% 29.66 in 5.0 mi NNW 17.3 mph 23.0 mph N/A   Overcast
10:15 AM 30.2 °F 19.3 °F 28.4 °F 93% 29.66 in 7.0 mi NW 15.0 mph 21.9 mph N/A   Overcast
10:35 AM 30.2 °F 18.5 °F 28.4 °F 93% 29.67 in 9.0 mi NW 17.3 mph 21.9 mph N/A   Overcast
10:55 AM 32.0 °F 20.8 °F 28.4 °F 87% 29.67 in 10.0 mi NW 17.3 mph 20.7 mph N/A   Mostly Cloudy
11:35 AM 32.0 °F 21.6 °F 26.6 °F 80% 29.67 in 10.0 mi NW 15.0 mph 20.7 mph N/A   Overcast
11:55 AM 33.8 °F 24.3 °F 26.6 °F 75% 29.67 in 10.0 mi NW 13.8 mph - N/A   Overcast
12:15 PM 33.8 °F 24.8 °F 26.6 °F 75% 29.68 in 10.0 mi NW 12.7 mph - N/A   Overcast
12:35 PM 33.8 °F 25.8 °F 26.6 °F 75% 29.68 in 10.0 mi NW 10.4 mph - N/A   Scattered Clouds
12:55 PM 33.8 °F 25.8 °F 26.6 °F 75% 29.68 in 10.0 mi NW 10.4 mph - N/A   Partly Cloudy
1:15 PM 33.8 °F 27.0 °F 24.8 °F 70% 29.68 in 10.0 mi NW 8.1 mph - N/A   Partly Cloudy
1:35 PM 35.6 °F 29.2 °F 24.8 °F 65% 29.67 in 10.0 mi NNW 8.1 mph - N/A   Clear
1:55 PM 35.6 °F 29.9 °F 24.8 °F 65% 29.67 in 10.0 mi NNW 6.9 mph - N/A   Clear
2:35 PM 35.6 °F 30.7 °F 21.2 °F 56% 29.67 in 10.0 mi NNW 5.8 mph - N/A   Clear
2:55 PM 35.6 °F 29.9 °F 21.2 °F 56% 29.67 in 10.0 mi NW 6.9 mph - N/A   Clear
3:15 PM 35.6 °F 31.7 °F 21.2 °F 56% 29.66 in 10.0 mi NW 4.6 mph - N/A   Clear
3:35 PM 35.6 °F 30.7 °F 21.2 °F 56% 29.66 in 10.0 mi West 5.8 mph - N/A   Clear
3:55 PM 35.6 °F 31.7 °F 24.8 °F 65% 29.66 in 10.0 mi SW 4.6 mph - N/A   Mostly Cloudy
4:15 PM 37.4 °F 32.1 °F 21.2 °F 52% 29.66 in 10.0 mi WSW 6.9 mph - N/A   Partly Cloudy
4:35 PM 37.4 °F 31.4 °F 24.8 °F 60% 29.66 in 10.0 mi SSW 8.1 mph - N/A   Clear
4:55 PM 35.6 °F 29.9 °F 24.8 °F 65% 29.67 in 10.0 mi SSW 6.9 mph - N/A   Partly Cloudy
5:35 PM 35.6 °F 31.7 °F 24.8 °F 65% 29.67 in 10.0 mi SSW 4.6 mph - N/A   Overcast
5:55 PM 35.6 °F 29.2 °F 24.8 °F 65% 29.67 in 10.0 mi SSW 8.1 mph - N/A   Mostly Cloudy
6:15 PM 35.6 °F 30.7 °F 24.8 °F 65% 29.68 in 10.0 mi SSW 5.8 mph - N/A   Overcast
6:35 PM 37.4 °F 28.9 °F 21.2 °F 52% 29.68 in 10.0 mi West 13.8 mph 24.2 mph N/A   Overcast
6:55 PM 37.4 °F 27.8 °F 23.0 °F 56% 29.69 in 10.0 mi West 17.3 mph 25.3 mph N/A   Overcast
7:15 PM 37.4 °F 27.5 °F 21.2 °F 52% 29.69 in 10.0 mi West 18.4 mph 23.0 mph N/A   Scattered Clouds
7:35 PM 37.4 °F 26.9 °F 23.0 °F 56% 29.70 in 10.0 mi West 20.7 mph - N/A   Partly Cloudy
7:55 PM 37.4 °F 27.8 °F 24.8 °F 60% 29.71 in 10.0 mi West 17.3 mph 21.9 mph N/A   Scattered Clouds
8:35 PM 35.6 °F 25.2 °F 24.8 °F 65% 29.72 in 10.0 mi West 18.4 mph 23.0 mph N/A   Clear
8:55 PM 35.6 °F 24.8 °F 23.0 °F 60% 29.72 in 10.0 mi West 19.6 mph 27.6 mph N/A   Clear
9:35 PM 35.6 °F 24.8 °F 24.8 °F 65% 29.73 in 10.0 mi West 19.6 mph 26.5 mph N/A   Clear
9:55 PM 35.6 °F 25.2 °F 24.8 °F 65% 29.73 in 10.0 mi West 18.4 mph 25.3 mph N/A   Clear
10:15 PM 35.6 °F 25.2 °F 24.8 °F 65% 29.73 in 10.0 mi West 18.4 mph 23.0 mph N/A   Clear
10:35 PM 35.6 °F 26.2 °F 24.8 °F 65% 29.73 in 10.0 mi West 15.0 mph 23.0 mph N/A   Clear
10:55 PM 33.8 °F 23.9 °F 24.8 °F 70% 29.73 in 10.0 mi West 15.0 mph 23.0 mph N/A   Clear
11:15 PM 33.8 °F 22.5 °F 23.0 °F 65% 29.73 in 10.0 mi West 19.6 mph 27.6 mph N/A   Clear
11:35 PM 33.8 °F 22.5 °F 23.0 °F 65% 29.73 in 10.0 mi West 19.6 mph 23.0 mph N/A   Clear